Location: Enikep?du
(16.5133°N, 80.7066°E)
Time: 18:02:08
(UTC+00:00)

STARLINK-1034 - Pass Details

Date: 20 January 2020
Orbit: 548 x 551 km, 53.0° (Epoch: 27 February)

Event Time Altitude Azimuth Distance (km) Brightness Sun altitude
Exits shadow 22:55:02 12° 159° (SSE) 1,696 6.5 -31.6°
Drops below altitude 10° 23:00:00 10° 81° (E) 1,813 7.0 -30.4°
Enters shadow 00:12:40 -41° 220° (SW) 9,146 9.7 -13.7°
Maximum altitude 00:36:37 28° 309° (NW) 1,047 4.5 -8.2°
